owner,sensor,date,latitude,longitude,vertical_datum,direction_of_sea_water_velocity,sea_water_speed,upward_sea_water_velocity,qcFlag 
TABS,ioos:station:wmo:42049:1,2016-02-01T00:00:00Z,28.3507,-96.0058,2.0,108.3375395,20.46945285,-99999.0,'11111222,11111222,99999999' 
TABS,ioos:station:wmo:42049:1,2016-02-01T00:30:00Z,28.3507,-96.0058,2.0,103.0671814,18.93018753,-99999.0,'11111222,11111222,99999999' 
TABS,ioos:station:wmo:42049:1,2016-02-01T01:00:00Z,28.3507,-96.0058,2.0,106.9056963,18.60398076,-99999.0,'11111222,11111222,99999999' 
TABS,ioos:station:wmo:42049:1,2016-02-01T01:30:00Z,28.3507,-96.0058,2.0,130.0856715,16.75638684,-99999.0,'11111222,11111222,99999999' 
TABS,ioos:station:wmo:42049:1,2016-02-01T02:00:00Z,28.3507,-96.0058,2.0,145.5351273,14.15446926,-99999.0,'11111222,11111222,99999999' 
TABS,ioos:station:wmo:42049:1,2016-02-01T02:30:00Z,28.3507,-96.0058,2.0,146.7651962,11.16646766,-99999.0,'11111222,11111222,99999999' 
TABS,ioos:station:wmo:42049:1,2016-02-01T03:00:00Z,28.3507,-96.0058,2.0,150.6765501,7.248786105,-99999.0,'11133222,11111222,99999999' 
TABS,ioos:station:wmo:42049:1,2016-02-01T03:30:00Z,28.3507,-96.0058,2.0,169.4250924,6.266426414,-99999.0,'11133222,11111222,99999999' 
TABS,ioos:station:wmo:42049:1,2016-02-01T04:00:00Z,28.3507,-96.0058,2.0,188.951328,4.24166241,-99999.0,'11133222,11111222,99999999' 
TABS,ioos:station:wmo:42049:1,2016-02-01T04:30:00Z,28.3507,-96.0058,2.0,224.7592844,5.055857989,-99999.0,'11133222,11111222,99999999' 
TABS,ioos:station:wmo:42049:1,2016-02-01T05:00:00Z,28.3507,-96.0058,2.0,236.1197656,5.022837843,-99999.0,'11133222,11111222,99999999' 
TABS,ioos:station:wmo:42049:1,2016-02-01T05:30:00Z,28.3507,-96.0058,2.0,245.5355754,7.075203177,-99999.0,'11133222,11111222,99999999' 
TABS,ioos:station:wmo:42049:1,2016-02-01T06:00:00Z,28.3507,-96.0058,2.0,273.9089561,4.841260167,-99999.0,'11133222,11111222,99999999' 
TABS,ioos:station:wmo:42049:1,2016-02-01T06:30:00Z,28.3507,-96.0058,2.0,261.3541768,5.188959433,-99999.0,'11133222,11111222,99999999' 
TABS,ioos:station:wmo:42049:1,2016-02-01T07:00:00Z,28.3507,-96.0058,2.0,296.1420508,3.63147353,-99999.0,'11133222,11111222,99999999' 
TABS,ioos:station:wmo:42049:1,2016-02-01T07:30:00Z,28.3507,-96.0058,2.0,286.9844338,6.744138195,-99999.0,'11133222,11111222,99999999' 
TABS,ioos:station:wmo:42049:1,2016-02-01T08:00:00Z,28.3507,-96.0058,2.0,308.7777083,9.133060823,-99999.0,'11133222,11111222,99999999' 
TABS,ioos:station:wmo:42049:1,2016-02-01T08:30:00Z,28.3507,-96.0058,2.0,293.8377256,8.833532702,-99999.0,'11133222,11111222,99999999' 
TABS,ioos:station:wmo:42049:1,2016-02-01T09:00:00Z,28.3507,-96.0058,2.0,295.5142317,12.67616661,-99999.0,'11111222,11111222,99999999' 
TABS,ioos:station:wmo:42049:1,2016-02-01T09:30:00Z,28.3507,-96.0058,2.0,299.5032562,12.04139942,-99999.0,'11111222,11111222,99999999' 
TABS,ioos:station:wmo:42049:1,2016-02-01T10:00:00Z,28.3507,-96.0058,2.0,301.9232525,11.78188864,-99999.0,'11111222,11111222,99999999' 
TABS,ioos:station:wmo:42049:1,2016-02-01T10:30:00Z,28.3507,-96.0058,2.0,311.7525468,13.23000378,-99999.0,'11111222,11111222,99999999' 
TABS,ioos:station:wmo:42049:1,2016-02-01T11:00:00Z,28.3507,-96.0058,2.0,307.2935915,12.18033251,-99999.0,'11111222,11111222,99999999' 
TABS,ioos:station:wmo:42049:1,2016-02-01T11:30:00Z,28.3507,-96.0058,2.0,316.4143478,12.89448332,-99999.0,'11111222,11111222,99999999' 
TABS,ioos:station:wmo:42049:1,2016-02-01T12:30:00Z,28.3507,-96.0058,2.0,322.2191022,12.32355874,-99999.0,'11111222,11111222,99999999' 
TABS,ioos:station:wmo:42049:1,2016-02-01T13:00:00Z,28.3507,-96.0058,2.0,315.6064076,11.36384178,-99999.0,'11111222,11111222,99999999' 
TABS,ioos:station:wmo:42049:1,2016-02-01T13:30:00Z,28.3507,-96.0058,2.0,328.2271563,6.798882261,-99999.0,'11133222,11111222,99999999' 
TABS,ioos:station:wmo:42049:1,2016-02-01T14:00:00Z,28.3507,-96.0058,2.0,335.1137343,6.107086048,-99999.0,'11133222,11111222,99999999' 
TABS,ioos:station:wmo:42049:1,2016-02-01T14:30:00Z,28.3507,-96.0058,2.0,350.3909611,6.409937597,-99999.0,'11133222,11111222,99999999' 
TABS,ioos:station:wmo:42049:1,2016-02-01T15:00:00Z,28.3507,-96.0058,2.0,10.79472728,7.848885271,-99999.0,'11133222,11111222,99999999' 
TABS,ioos:station:wmo:42049:1,2016-02-01T15:30:00Z,28.3507,-96.0058,2.0,17.38255869,6.0251556,-99999.0,'11133222,11111222,99999999' 
TABS,ioos:station:wmo:42049:1,2016-02-01T16:00:00Z,28.3507,-96.0058,2.0,358.2645099,5.942726647,-99999.0,'11133222,11111222,99999999' 
TABS,ioos:station:wmo:42049:1,2016-02-01T17:00:00Z,28.3507,-96.0058,2.0,13.33942817,5.98137108,-99999.0,'11133222,11111222,99999999' 
TABS,ioos:station:wmo:42049:1,2016-02-01T17:30:00Z,28.3507,-96.0058,2.0,357.3922735,4.835007756,-99999.0,'11133222,11111222,99999999' 
TABS,ioos:station:wmo:42049:1,2016-02-01T18:00:00Z,28.3507,-96.0058,2.0,348.9454541,3.963546392,-99999.0,'11133222,11111222,99999999' 
TABS,ioos:station:wmo:42049:1,2016-02-01T19:00:00Z,28.3507,-96.0058,2.0,0.383453208,2.990066889,-99999.0,'11133222,11111222,99999999' 
TABS,ioos:station:wmo:42049:1,2016-02-01T19:30:00Z,28.3507,-96.0058,2.0,311.3663984,6.582256452,-99999.0,'11133222,11111222,99999999' 
TABS,ioos:station:wmo:42049:1,2016-02-01T20:00:00Z,28.3507,-96.0058,2.0,324.4095151,6.271562804,-99999.0,'11133222,11111222,99999999' 
TABS,ioos:station:wmo:42049:1,2016-02-01T20:30:00Z,28.3507,-96.0058,2.0,352.0646786,1.665953181,-99999.0,'11133222,11111222,99999999' 
TABS,ioos:station:wmo:42049:1,2016-02-01T21:00:00Z,28.3507,-96.0058,2.0,292.5140208,3.734621801,-99999.0,'11133222,11111222,99999999' 
TABS,ioos:station:wmo:42049:1,2016-02-01T22:00:00Z,28.3507,-96.0058,2.0,296.6687073,7.441646323,-99999.0,'11133222,11111222,99999999' 
TABS,ioos:station:wmo:42049:1,2016-02-01T23:00:00Z,28.3507,-96.0058,2.0,283.0667693,10.17340159,-99999.0,'11111222,11111222,99999999' 
TABS,ioos:station:wmo:42049:1,2016-02-01T23:30:00Z,28.3507,-96.0058,2.0,288.2522741,13.85717143,-99999.0,'11111222,11111222,99999999' 
TABS,ioos:station:wmo:42049:1,2016-02-02T00:00:00Z,28.3507,-96.0058,2.0,298.3011105,16.68425006,-99999.0,'11111222,11111222,99999999' 
TABS,ioos:station:wmo:42049:1,2016-02-02T00:30:00Z,28.3507,-96.0058,2.0,297.8913993,19.13244888,-99999.0,'11111222,11111222,99999999' 
TABS,ioos:station:wmo:42049:1,2016-02-02T01:00:00Z,28.3507,-96.0058,2.0,301.2846188,22.99317507,-99999.0,'11111222,11111222,99999999' 
TABS,ioos:station:wmo:42049:1,2016-02-02T01:30:00Z,28.3507,-96.0058,2.0,303.0336161,22.98551283,-99999.0,'11111222,11111222,99999999' 
TABS,ioos:station:wmo:42049:1,2016-02-02T02:00:00Z,28.3507,-96.0058,2.0,305.1965115,28.28006542,-99999.0,'11111222,11111222,99999999' 
TABS,ioos:station:wmo:42049:1,2016-02-02T02:30:00Z,28.3507,-96.0058,2.0,310.681499,27.23022218,-99999.0,'11111222,11111222,99999999' 
TABS,ioos:station:wmo:42049:1,2016-02-02T03:00:00Z,28.3507,-96.0058,2.0,301.7745443,26.79590454,-99999.0,'11111222,11111222,99999999' 
TABS,ioos:station:wmo:42049:1,2016-02-02T03:30:00Z,28.3507,-96.0058,2.0,308.733485,29.27948087,-99999.0,'11111222,11111222,99999999' 
TABS,ioos:station:wmo:42049:1,2016-02-02T04:00:00Z,28.3507,-96.0058,2.0,306.8658479,26.13600008,-99999.0,'11111222,11111222,99999999' 
TABS,ioos:station:wmo:42049:1,2016-02-02T04:30:00Z,28.3507,-96.0058,2.0,309.0283953,27.45747621,-99999.0,'11111222,11111222,99999999' 
TABS,ioos:station:wmo:42049:1,2016-02-02T05:00:00Z,28.3507,-96.0058,2.0,306.5242881,27.82450718,-99999.0,'11111222,11111222,99999999' 
TABS,ioos:station:wmo:42049:1,2016-02-02T05:30:00Z,28.3507,-96.0058,2.0,303.1405643,23.12096884,-99999.0,'11111222,11111222,99999999' 
TABS,ioos:station:wmo:42049:1,2016-02-02T06:00:00Z,28.3507,-96.0058,2.0,301.7462646,22.23686354,-99999.0,'11111222,11111222,99999999' 
TABS,ioos:station:wmo:42049:1,2016-02-02T06:30:00Z,28.3507,-96.0058,2.0,296.5311764,22.45459864,-99999.0,'11111222,11111222,99999999' 
TABS,ioos:station:wmo:42049:1,2016-02-02T07:00:00Z,28.3507,-96.0058,2.0,299.7836024,22.22578907,-99999.0,'11111222,11111222,99999999' 
TABS,ioos:station:wmo:42049:1,2016-02-02T07:30:00Z,28.3507,-96.0058,2.0,304.1139983,18.75769975,-99999.0,'11111222,11111222,99999999' 
TABS,ioos:station:wmo:42049:1,2016-02-02T08:00:00Z,28.3507,-96.0058,2.0,296.6196501,14.17220519,-99999.0,'11111222,11111222,99999999' 
TABS,ioos:station:wmo:42049:1,2016-02-02T08:30:00Z,28.3507,-96.0058,2.0,288.5951786,15.86837106,-99999.0,'11111222,11111222,99999999' 
TABS,ioos:station:wmo:42049:1,2016-02-02T09:00:00Z,28.3507,-96.0058,2.0,259.7736401,9.744793482,-99999.0,'11133222,11111222,99999999' 
TABS,ioos:station:wmo:42049:1,2016-02-02T09:30:00Z,28.3507,-96.0058,2.0,248.3480519,10.65152102,-99999.0,'11111222,11111222,99999999' 
TABS,ioos:station:wmo:42049:1,2016-02-02T10:00:00Z,28.3507,-96.0058,2.0,249.8315648,8.469291588,-99999.0,'11133222,11111222,99999999' 
TABS,ioos:station:wmo:42049:1,2016-02-02T10:30:00Z,28.3507,-96.0058,2.0,236.4240543,12.49464685,-99999.0,'11111222,11111222,99999999' 
TABS,ioos:station:wmo:42049:1,2016-02-02T11:00:00Z,28.3507,-96.0058,2.0,212.6654574,15.35932941,-99999.0,'11111222,11111222,99999999' 
TABS,ioos:station:wmo:42049:1,2016-02-02T11:30:00Z,28.3507,-96.0058,2.0,215.9194422,19.17663683,-99999.0,'11111222,11111222,99999999' 
TABS,ioos:station:wmo:42049:1,2016-02-02T12:00:00Z,28.3507,-96.0058,2.0,220.8371635,22.8928657,-99999.0,'11111222,11111222,99999999' 
TABS,ioos:station:wmo:42049:1,2016-02-02T12:30:00Z,28.3507,-96.0058,2.0,224.4633421,25.68324356,-99999.0,'11111222,11111222,99999999' 
TABS,ioos:station:wmo:42049:1,2016-02-02T13:00:00Z,28.3507,-96.0058,2.0,207.2056428,29.98754742,-99999.0,'11111222,11111222,99999999' 
TABS,ioos:station:wmo:42049:1,2016-02-02T15:00:00Z,28.3507,-96.0058,2.0,215.9346859,48.78449446,-99999.0,'11111222,11111222,99999999' 
TABS,ioos:station:wmo:42049:1,2016-02-02T15:30:00Z,28.3507,-96.0058,2.0,223.406879,53.93065918,-99999.0,'11111222,11111222,99999999' 
TABS,ioos:station:wmo:42049:1,2016-02-02T16:00:00Z,28.3507,-96.0058,2.0,224.3959965,57.04547046,-99999.0,'11111222,11111222,99999999' 
TABS,ioos:station:wmo:42049:1,2016-02-02T16:30:00Z,28.3507,-96.0058,2.0,227.9482192,59.65979886,-99999.0,'11111222,11111222,99999999' 
TABS,ioos:station:wmo:42049:1,2016-02-02T17:00:00Z,28.3507,-96.0058,2.0,231.9089079,55.19452962,-99999.0,'11111222,11111222,99999999' 
TABS,ioos:station:wmo:42049:1,2016-02-02T17:30:00Z,28.3507,-96.0058,2.0,234.2551496,61.50586395,-99999.0,'11111222,11111222,99999999' 
TABS,ioos:station:wmo:42049:1,2016-02-02T18:00:00Z,28.3507,-96.0058,2.0,235.2762851,55.21274219,-99999.0,'11111222,11111222,99999999' 
TABS,ioos:station:wmo:42049:1,2016-02-02T18:30:00Z,28.3507,-96.0058,2.0,235.2553206,58.93855275,-99999.0,'11111222,11111222,99999999' 
TABS,ioos:station:wmo:42049:1,2016-02-02T19:00:00Z,28.3507,-96.0058,2.0,235.3142424,59.55327867,-99999.0,'11111222,11111222,99999999' 
TABS,ioos:station:wmo:42049:1,2016-02-02T19:30:00Z,28.3507,-96.0058,2.0,238.7523597,60.64778726,-99999.0,'11111222,11111222,99999999' 
TABS,ioos:station:wmo:42049:1,2016-02-02T20:00:00Z,28.3507,-96.0058,2.0,237.2384655,58.33993915,-99999.0,'11111222,11111222,99999999' 
TABS,ioos:station:wmo:42049:1,2016-02-02T20:30:00Z,28.3507,-96.0058,2.0,237.9086193,58.14412868,-99999.0,'11111222,11111222,99999999' 
TABS,ioos:station:wmo:42049:1,2016-02-02T21:00:00Z,28.3507,-96.0058,2.0,236.2715581,58.49592208,-99999.0,'11111222,11111222,99999999' 
TABS,ioos:station:wmo:42049:1,2016-02-02T21:30:00Z,28.3507,-96.0058,2.0,237.8452917,60.33422329,-99999.0,'11111222,11111222,99999999' 
TABS,ioos:station:wmo:42049:1,2016-02-02T22:00:00Z,28.3507,-96.0058,2.0,239.0391903,59.6369181,-99999.0,'11111222,11111222,99999999' 
TABS,ioos:station:wmo:42049:1,2016-02-02T22:30:00Z,28.3507,-96.0058,2.0,239.9553532,59.10087732,-99999.0,'11111222,11111222,99999999' 
TABS,ioos:station:wmo:42049:1,2016-02-02T23:00:00Z,28.3507,-96.0058,2.0,239.0474635,59.4568457,-99999.0,'11111222,11111222,99999999' 
TABS,ioos:station:wmo:42049:1,2016-02-02T23:30:00Z,28.3507,-96.0058,2.0,239.6086959,57.64012491,-99999.0,'11111222,11111222,99999999' 
TABS,ioos:station:wmo:42049:1,2016-02-03T00:00:00Z,28.3507,-96.0058,2.0,240.4905242,55.46508181,-99999.0,'11111222,11111222,99999999' 
TABS,ioos:station:wmo:42049:1,2016-02-03T00:30:00Z,28.3507,-96.0058,2.0,239.5143676,52.98462041,-99999.0,'11111222,11111222,99999999' 
TABS,ioos:station:wmo:42049:1,2016-02-03T01:00:00Z,28.3507,-96.0058,2.0,242.7239163,53.72342971,-99999.0,'11111222,11111222,99999999' 
TABS,ioos:station:wmo:42049:1,2016-02-03T01:30:00Z,28.3507,-96.0058,2.0,241.7466217,50.40495611,-99999.0,'11111222,11111222,99999999' 
TABS,ioos:station:wmo:42049:1,2016-02-03T02:00:00Z,28.3507,-96.0058,2.0,247.5931956,49.76726836,-99999.0,'11111222,11111222,99999999' 
TABS,ioos:station:wmo:42049:1,2016-02-03T02:30:00Z,28.3507,-96.0058,2.0,252.6476939,48.85326806,-99999.0,'11111222,11111222,99999999' 
TABS,ioos:station:wmo:42049:1,2016-02-03T03:00:00Z,28.3507,-96.0058,2.0,255.5770768,44.96712688,-99999.0,'11111222,11111222,99999999' 
TABS,ioos:station:wmo:42049:1,2016-02-03T03:30:00Z,28.3507,-96.0058,2.0,260.0576828,43.20885557,-99999.0,'11111222,11111222,99999999' 
TABS,ioos:station:wmo:42049:1,2016-02-03T04:00:00Z,28.3507,-96.0058,2.0,259.6204417,40.68573829,-99999.0,'11111222,11111222,99999999' 
TABS,ioos:station:wmo:42049:1,2016-02-03T04:30:00Z,28.3507,-96.0058,2.0,259.4193868,39.26759606,-99999.0,'11111222,11111222,99999999' 
TABS,ioos:station:wmo:42049:1,2016-02-03T05:00:00Z,28.3507,-96.0058,2.0,259.8145482,36.36301693,-99999.0,'11111222,11111222,99999999' 
TABS,ioos:station:wmo:42049:1,2016-02-03T05:30:00Z,28.3507,-96.0058,2.0,298.7160227,51.72090583,-99999.0,'11111222,11111222,99999999' 
TABS,ioos:station:wmo:42049:1,2016-02-03T06:00:00Z,28.3507,-96.0058,2.0,313.0475441,51.67001548,-99999.0,'11111222,11111222,99999999' 
TABS,ioos:station:wmo:42049:1,2016-02-03T06:30:00Z,28.3507,-96.0058,2.0,317.9343446,44.34422736,-99999.0,'11111222,11111222,99999999' 
TABS,ioos:station:wmo:42049:1,2016-02-03T07:00:00Z,28.3507,-96.0058,2.0,322.1750986,41.38575238,-99999.0,'11111222,11111222,99999999' 
TABS,ioos:station:wmo:42049:1,2016-02-03T07:30:00Z,28.3507,-96.0058,2.0,325.2577199,37.44580751,-99999.0,'11111222,11111222,99999999' 
TABS,ioos:station:wmo:42049:1,2016-02-03T08:00:00Z,28.3507,-96.0058,2.0,329.6288225,33.34625166,-99999.0,'11111222,11111222,99999999' 
TABS,ioos:station:wmo:42049:1,2016-02-03T08:30:00Z,28.3507,-96.0058,2.0,339.2050033,29.71583585,-99999.0,'11111222,11111222,99999999' 
TABS,ioos:station:wmo:42049:1,2016-02-03T09:00:00Z,28.3507,-96.0058,2.0,353.7260258,22.05208607,-99999.0,'11111222,11111222,99999999' 
TABS,ioos:station:wmo:42049:1,2016-02-03T09:30:00Z,28.3507,-96.0058,2.0,350.9870272,13.21315254,-99999.0,'11111222,11111222,99999999' 
TABS,ioos:station:wmo:42049:1,2016-02-03T10:00:00Z,28.3507,-96.0058,2.0,16.20461976,6.987603309,-99999.0,'11133222,11111222,99999999' 
TABS,ioos:station:wmo:42049:1,2016-02-03T10:30:00Z,28.3507,-96.0058,2.0,166.3626257,6.616532324,-99999.0,'11133222,11111222,99999999' 
TABS,ioos:station:wmo:42049:1,2016-02-03T11:00:00Z,28.3507,-96.0058,2.0,179.3501148,14.11090713,-99999.0,'11111222,11111222,99999999' 
TABS,ioos:station:wmo:42049:1,2016-02-03T11:30:00Z,28.3507,-96.0058,2.0,203.1387694,31.58052723,-99999.0,'11111222,11111222,99999999' 
TABS,ioos:station:wmo:42049:1,2016-02-03T12:00:00Z,28.3507,-96.0058,2.0,201.0150375,40.73982081,-99999.0,'11111222,11111222,99999999' 
TABS,ioos:station:wmo:42049:1,2016-02-03T12:30:00Z,28.3507,-96.0058,2.0,207.7806468,41.72995207,-99999.0,'11111222,11111222,99999999' 
TABS,ioos:station:wmo:42049:1,2016-02-03T13:00:00Z,28.3507,-96.0058,2.0,214.4603373,49.28956989,-99999.0,'11111222,11111222,99999999' 
TABS,ioos:station:wmo:42049:1,2016-02-03T13:30:00Z,28.3507,-96.0058,2.0,217.5502507,58.08409851,-99999.0,'11111222,11111222,99999999' 
TABS,ioos:station:wmo:42049:1,2016-02-03T14:00:00Z,28.3507,-96.0058,2.0,215.261151,60.27975116,-99999.0,'11111222,11111222,99999999' 
TABS,ioos:station:wmo:42049:1,2016-02-03T14:30:00Z,28.3507,-96.0058,2.0,218.6793709,67.57170562,-99999.0,'11111222,11111222,99999999' 
TABS,ioos:station:wmo:42049:1,2016-02-03T15:00:00Z,28.3507,-96.0058,2.0,226.9830839,72.5289687,-99999.0,'11111222,11111222,99999999' 
TABS,ioos:station:wmo:42049:1,2016-02-03T15:30:00Z,28.3507,-96.0058,2.0,231.1385296,70.22240383,-99999.0,'11111222,11111222,99999999' 
TABS,ioos:station:wmo:42049:1,2016-02-03T16:00:00Z,28.3507,-96.0058,2.0,232.3380265,73.96106138,-99999.0,'11111222,11111222,99999999' 
TABS,ioos:station:wmo:42049:1,2016-02-03T16:30:00Z,28.3507,-96.0058,2.0,234.0463592,75.63967874,-99999.0,'11111222,11111222,99999999' 
TABS,ioos:station:wmo:42049:1,2016-02-03T17:00:00Z,28.3507,-96.0058,2.0,237.2108523,75.82025587,-99999.0,'11111222,11111222,99999999' 
TABS,ioos:station:wmo:42049:1,2016-02-03T17:30:00Z,28.3507,-96.0058,2.0,238.9734162,75.49029209,-99999.0,'11111222,11111222,99999999' 
TABS,ioos:station:wmo:42049:1,2016-02-03T18:00:00Z,28.3507,-96.0058,2.0,239.9132523,73.24877337,-99999.0,'11111222,11111222,99999999' 
TABS,ioos:station:wmo:42049:1,2016-02-03T18:30:00Z,28.3507,-96.0058,2.0,239.5826799,72.96225051,-99999.0,'11111222,11111222,99999999' 
TABS,ioos:station:wmo:42049:1,2016-02-03T19:00:00Z,28.3507,-96.0058,2.0,241.1675721,70.77327815,-99999.0,'11111222,11111222,99999999' 
TABS,ioos:station:wmo:42049:1,2016-02-03T19:30:00Z,28.3507,-96.0058,2.0,244.6496052,70.6532731,-99999.0,'11111222,11111222,99999999' 
TABS,ioos:station:wmo:42049:1,2016-02-03T20:00:00Z,28.3507,-96.0058,2.0,242.4299297,84.93444649,-99999.0,'11111222,11111222,99999999' 
TABS,ioos:station:wmo:42049:1,2016-02-03T20:30:00Z,28.3507,-96.0058,2.0,250.4707593,80.50096273,-99999.0,'11111222,11111222,99999999' 
TABS,ioos:station:wmo:42049:1,2016-02-03T21:00:00Z,28.3507,-96.0058,2.0,248.4697744,80.7115283,-99999.0,'11111222,11111222,99999999' 
TABS,ioos:station:wmo:42049:1,2016-02-03T21:30:00Z,28.3507,-96.0058,2.0,247.8492341,88.71759352,-99999.0,'11111222,11111222,99999999' 
TABS,ioos:station:wmo:42049:1,2016-02-03T22:00:00Z,28.3507,-96.0058,2.0,250.869161,83.3637811,-99999.0,'11111222,11111222,99999999' 
TABS,ioos:station:wmo:42049:1,2016-02-03T22:30:00Z,28.3507,-96.0058,2.0,251.067119,76.83675748,-99999.0,'11111222,11111222,99999999' 
TABS,ioos:station:wmo:42049:1,2016-02-03T23:00:00Z,28.3507,-96.0058,2.0,247.7158047,78.95674259,-99999.0,'11111222,11111222,99999999' 
TABS,ioos:station:wmo:42049:1,2016-02-03T23:30:00Z,28.3507,-96.0058,2.0,250.5591443,71.35829735,-99999.0,'11111222,11111222,99999999' 
TABS,ioos:station:wmo:42049:1,2016-02-04T00:00:00Z,28.3507,-96.0058,2.0,250.060068,70.81516363,-99999.0,'11111222,11111222,99999999' 
TABS,ioos:station:wmo:42049:1,2016-02-04T00:30:00Z,28.3507,-96.0058,2.0,248.5513104,65.38828412,-99999.0,'11111222,11111222,99999999' 
TABS,ioos:station:wmo:42049:1,2016-02-04T01:00:00Z,28.3507,-96.0058,2.0,245.563676,65.24431086,-99999.0,'11111222,11111222,99999999' 
TABS,ioos:station:wmo:42049:1,2016-02-04T01:30:00Z,28.3507,-96.0058,2.0,245.4353893,61.0997946,-99999.0,'11111222,11111222,99999999' 
TABS,ioos:station:wmo:42049:1,2016-02-04T02:00:00Z,28.3507,-96.0058,2.0,243.583134,60.37403829,-99999.0,'11111222,11111222,99999999' 
TABS,ioos:station:wmo:42049:1,2016-02-04T02:30:00Z,28.3507,-96.0058,2.0,241.898692,61.56765466,-99999.0,'11111222,11111222,99999999' 
TABS,ioos:station:wmo:42049:1,2016-02-04T03:00:00Z,28.3507,-96.0058,2.0,235.533754,63.70206355,-99999.0,'11111222,11111222,99999999' 
TABS,ioos:station:wmo:42049:1,2016-02-04T03:30:00Z,28.3507,-96.0058,2.0,234.5717847,59.44682666,-99999.0,'11111222,11111222,99999999' 
TABS,ioos:station:wmo:42049:1,2016-02-04T04:00:00Z,28.3507,-96.0058,2.0,230.7883355,59.38157711,-99999.0,'11111222,11111222,99999999' 
TABS,ioos:station:wmo:42049:1,2016-02-04T04:30:00Z,28.3507,-96.0058,2.0,231.8892191,58.47570607,-99999.0,'11111222,11111222,99999999' 
TABS,ioos:station:wmo:42049:1,2016-02-04T05:00:00Z,28.3507,-96.0058,2.0,230.2505489,64.98002847,-99999.0,'11111222,11111222,99999999' 
TABS,ioos:station:wmo:42049:1,2016-02-04T05:30:00Z,28.3507,-96.0058,2.0,227.0017132,68.0086171,-99999.0,'11111222,11111222,99999999' 
TABS,ioos:station:wmo:42049:1,2016-02-04T06:00:00Z,28.3507,-96.0058,2.0,227.0980396,69.90902803,-99999.0,'11111222,11111222,99999999' 
TABS,ioos:station:wmo:42049:1,2016-02-04T06:30:00Z,28.3507,-96.0058,2.0,232.2517642,79.87737852,-99999.0,'11111222,11111222,99999999' 
TABS,ioos:station:wmo:42049:1,2016-02-04T07:00:00Z,28.3507,-96.0058,2.0,230.3469728,72.46144975,-99999.0,'11111222,11111222,99999999' 
TABS,ioos:station:wmo:42049:1,2016-02-04T07:30:00Z,28.3507,-96.0058,2.0,235.3332499,69.33927098,-99999.0,'11111222,11111222,99999999' 
TABS,ioos:station:wmo:42049:1,2016-02-04T08:00:00Z,28.3507,-96.0058,2.0,234.741548,78.14491794,-99999.0,'11111222,11111222,99999999' 
TABS,ioos:station:wmo:42049:1,2016-02-04T08:30:00Z,28.3507,-96.0058,2.0,240.2063962,76.39798165,-99999.0,'11111222,11111222,99999999' 
TABS,ioos:station:wmo:42049:1,2016-02-04T09:00:00Z,28.3507,-96.0058,2.0,241.3437192,83.47432779,-99999.0,'11111222,11111222,99999999' 
TABS,ioos:station:wmo:42049:1,2016-02-04T09:30:00Z,28.3507,-96.0058,2.0,241.1036631,82.79855192,-99999.0,'11111222,11111222,99999999' 
TABS,ioos:station:wmo:42049:1,2016-02-04T10:00:00Z,28.3507,-96.0058,2.0,243.7591158,78.95682681,-99999.0,'11111222,11111222,99999999' 
TABS,ioos:station:wmo:42049:1,2016-02-04T10:30:00Z,28.3507,-96.0058,2.0,240.381229,84.29421095,-99999.0,'11111222,11111222,99999999' 
TABS,ioos:station:wmo:42049:1,2016-02-04T11:00:00Z,28.3507,-96.0058,2.0,244.9664655,80.800125,-99999.0,'11111222,11111222,99999999' 
TABS,ioos:station:wmo:42049:1,2016-02-04T11:30:00Z,28.3507,-96.0058,2.0,245.0911977,96.06585502,-99999.0,'11111222,11111222,99999999' 
TABS,ioos:station:wmo:42049:1,2016-02-04T12:00:00Z,28.3507,-96.0058,2.0,247.6484023,98.11107838,-99999.0,'11111222,11111222,99999999' 
TABS,ioos:station:wmo:42049:1,2016-02-04T12:30:00Z,28.3507,-96.0058,2.0,249.0902218,92.80134967,-99999.0,'11111222,11111222,99999999' 
TABS,ioos:station:wmo:42049:1,2016-02-04T13:00:00Z,28.3507,-96.0058,2.0,251.6353408,92.30063055,-99999.0,'11111222,11111222,99999999' 
TABS,ioos:station:wmo:42049:1,2016-02-04T13:30:00Z,28.3507,-96.0058,2.0,251.7913575,97.51275711,-99999.0,'11111222,11111222,99999999' 
TABS,ioos:station:wmo:42049:1,2016-02-04T14:00:00Z,28.3507,-96.0058,2.0,256.0421968,88.14238027,-99999.0,'11111222,11111222,99999999' 
TABS,ioos:station:wmo:42049:1,2016-02-04T14:30:00Z,28.3507,-96.0058,2.0,253.9834922,96.80767841,-99999.0,'11111222,11111222,99999999' 
TABS,ioos:station:wmo:42049:1,2016-02-04T15:00:00Z,28.3507,-96.0058,2.0,253.1344478,105.5078812,-99999.0,'11111222,11111222,99999999' 
TABS,ioos:station:wmo:42049:1,2016-02-04T15:30:00Z,28.3507,-96.0058,2.0,256.1732878,99.2971767,-99999.0,'11111222,11111222,99999999' 
TABS,ioos:station:wmo:42049:1,2016-02-04T16:00:00Z,28.3507,-96.0058,2.0,255.8896342,101.7704579,-99999.0,'11111222,11111222,99999999' 
TABS,ioos:station:wmo:42049:1,2016-02-04T16:30:00Z,28.3507,-96.0058,2.0,257.0492226,100.9784383,-99999.0,'11111222,11111222,99999999' 
TABS,ioos:station:wmo:42049:1,2016-02-04T17:00:00Z,28.3507,-96.0058,2.0,259.2288866,100.653219,-99999.0,'11111222,11111222,99999999' 
TABS,ioos:station:wmo:42049:1,2016-02-04T17:30:00Z,28.3507,-96.0058,2.0,259.1709254,97.83206274,-99999.0,'11111222,11111222,99999999' 
TABS,ioos:station:wmo:42049:1,2016-02-04T18:00:00Z,28.3507,-96.0058,2.0,259.5894473,98.7860724,-99999.0,'11111222,11111222,99999999' 
TABS,ioos:station:wmo:42049:1,2016-02-04T18:30:00Z,28.3507,-96.0058,2.0,260.3040823,94.11426778,-99999.0,'11111222,11111222,99999999' 
TABS,ioos:station:wmo:42049:1,2016-02-04T19:00:00Z,28.3507,-96.0058,2.0,259.5153859,94.853574,-99999.0,'11111222,11111222,99999999' 
TABS,ioos:station:wmo:42049:1,2016-02-04T19:30:00Z,28.3507,-96.0058,2.0,261.1516005,91.5393298,-99999.0,'11111222,11111222,99999999' 
TABS,ioos:station:wmo:42049:1,2016-02-04T20:00:00Z,28.3507,-96.0058,2.0,259.6396779,90.25132298,-99999.0,'11111222,11111222,99999999' 